Location: Unspecified
(40.1952°N, 0.0000°E)
Time: 06:42:58
(UTC+00:00)

Meteor 2-13 Rocket - Visible Passes

Search period start: 04 April 2026 00:00
Search period end: 14 April 2026 00:00
Orbit: 935 x 958 km, 82.5° (Epoch: 29 March)

Date Brightness Start Highest point End Pass type
(mag) Time Alt. Az. Time Alt. Az. Time Alt. Az.
4 Apr 5.5 18:49:51 10° NNE 18:54:50 25° ENE 18:59:47 10° SE visible
4 Apr 5.3 20:34:01 10° NNW 20:39:51 47° W 20:45:41 10° SSW visible
5 Apr 5.0 19:06:01 10° N 19:11:43 38° ENE 19:17:24 10° SE visible
5 Apr 6.1 20:51:06 10° NNW 20:56:19 30° W 21:01:33 10° SW visible
6 Apr 4.5 19:22:25 10° N 19:28:30 60° E 19:34:34 10° SSE visible
6 Apr 6.8 21:08:34 10° NW 21:12:43 19° W 21:16:51 10° SW visible
7 Apr 4.5 19:39:01 10° N 19:45:11 88° W 19:51:21 10° S visible
7 Apr 7.2 21:27:06 10° WNW 21:29:00 11° W 21:30:54 10° W visible
8 Apr 5.1 19:55:47 10° NNW 20:01:47 57° W 20:07:47 10° S visible
9 Apr 5.9 20:12:46 10° NNW 20:18:18 36° W 20:23:50 10° SSW visible
10 Apr 6.7 20:30:03 10° NW 20:34:43 23° W 20:39:23 10° SW visible
11 Apr 4.5 19:00:53 10° N 19:07:05 78° E 19:13:14 10° SSE visible
11 Apr 7.2 20:47:56 10° NW 20:51:03 14° W 20:54:10 10° WSW visible
12 Apr 4.9 19:17:35 10° NNW 19:23:43 69° W 19:29:48 10° S visible
13 Apr 5.7 19:34:29 10° NNW 19:40:15 44° W 19:46:01 10° SSW visible
